User: anonymous   Login
Location: La Brionne
(46.1728°N, 1.7849°E)
Time: 07:07:20
(UTC+00:00)
Language:

Cosmos 2263 Rocket - Orbit

View from above orbital plane
View from above orbital plane
View from above satellite
View from above satellite

Ground track
Ground track

The orbit data is extracted from the following two-line orbital elements,

1 22803U 93059B   21266.12176221 -.00000208  00000-0 -79614-4 0  9993
2 22803  70.9905 204.2164 0016999 179.4486 180.6659 14.16844941449092
Epoch (UTC): 23 September 2021 02:55:20
Eccentricity: 0.0016999
inclination: 70.9905°
perigee height: 824 km
apogee height: 848 km
right ascension of ascending node: 204.2164°
argument of perigee: 179.4486°
revolutions per day: 14.16844941
mean anomaly at epoch: 180.6659°
orbit number at epoch: 44909

The dashed part of the orbit path shows where the satellite is in the earth's shadow,  

DLR